DECAYED
Showing default

LILIUM-1, 58467 (Decayed)

Orbit data source: Space-Track

LILIUM-1, 58467 was a Taiwanese payload satellite in LEO that was launched on Fri, 01 Dec 2023 UTC via an FALCON 9 launch vehicle from the Air Force Western Test Range (AFWTR). Payload-class satellites include a variety of spacecraft equipped with specific instruments for various scientific and technological missions. These include communications satellites like Starlink; space stations such as the ISS; scientific satellites like the Hubble; Earth observation satellites from companies like Planet Labs, Umbra, and HawkEye 360; GPS; miniature CubeSats for education and research; and military/defense satellites.

Not visible in the next 10 days
Identifier
58467, 2023-185F
Orbit
Decayed
Country
Flag of TWTW / TWN
Related business
Manufacturer
NCKU
Mission
Decayed Amateur Technology
Bus & Motor
CUBESAT 3U, Unknown motor
Mass
4 kg wet, 4 kg dry
Launch date (UTC)
2023-12-01 (3 years ago)
Launch vehicle
FALCON 9
Launch site
Air Force Western Test Range (AFWTR)
Object type
Payload
Rocket body
Debris
Shape & HBR
Box, 0.2 m
Radar Cross Section
0.035 m², Medium (>0.1 m² and < 1m²)

Expand to show TLE details & history
Last TLE update: 2 months ago

TLE from 2 months ago
0 LILIUM-1
1 58467U 23185F   26152.03564373  .05761009  24419-5  11520-2 0  9990
2 58467  97.3060 236.4922 0014927 262.3118  97.6482 16.31146913140063
Epoch: 2026-06-01T00:51Z
TLE epoch observation values (Epoch: 2026-06-01T00:51:19.618Z)
Latitude
-0°
Longitude
-25.86828°
Altitude
194.021 km
Speed
7.789 km/s
True Right ascension
15h 45m 58s
True Declination
0° 00' 00"
Sunlit
Object was in full shadow at epoch
Visualization orbit readout
Latitude
Unknown
Longitude
Unknown
Altitude
Unknown
Speed
Unknown
Apparent Right ascension
Unknown
Apparent Declination
Unknown
Sunlit
N/A
Visualization observer readout
Local Sidereal Time
01:10:40
Azimuth
Unknown
Elevation
Unknown
Doppler factor
Unknown
Orbital elements
Apogee altitude
196.073 km
Perigee altitude
176.476 km
Semi-major axis
6,564.411 km
Eccentricity
0.00149
Inclination
97.306°
RAAN
236.4922°
Arg. of periapsis
262.3118°
True anomaly
97.81769°
Mean anomaly
97.6482°
Eccentric anomaly
97.73295°
Mean motion
4.08084 °/min
Orbital period
88.22 mins
BSTAR
0.001152
Loading maneuver chart data...
Computing Atmospheric mass density...
Loading historical data...
Loading historical data...
Loading historical data...
Loading historical data...
Loading historical data...
Loading historical data...
Loading historical data...

Documentation

Showing up to 5 results
|